Back to catalog

STARLINK-5788

AliveCommunicationsVLEO
NORAD 57148·PAYLOAD·🇺🇸 United States

Launched Jun 23, 2023 from Cape Canaveral Space Force Station

Loading…

Next Passes (next 24 hours)

TLE

FreshSource: CelesTrak SupGP

Epoch: Sep 14, 2026, 14:12 UTC

1 57148C 23090AZ  26257.59215278  .00017707  00000+0  64123-3 0  2577
2 57148  42.9998 276.8475 0001339 270.5282 307.4003 15.27575541    19

Track STARLINK-5788 in real time with AllMySat

Download on the App Store